SL-14 DEB, 45284

Orbit data source: Space-Track

SL-14 DEB, 45284 is space debris in LEO originally from a launch on Thu, 15 Aug 1991 UTC launched from the Plesetsk Missile And Space Complex (PKMTR). Debris objects in space refer to the collection of defunct objects orbiting the Earth. Examples of debris include non-operational satellites, rocket bodies, and fragments generated from explosions, collisions, or faulty payload assembly.

Loading next visibility...
Identifier
45284, 1991-056W
Orbit
LEO
Country
Flag of CISCIS
Related business
Manufacturer
Unknown
Mission
Spacecraft
Bus & Motor
Unknown
Mass
Unknown
Launch date (UTC)
1991-08-15 (35 years ago)
Launch vehicle
Unknown
Launch site
Plesetsk Missile And Space Complex (PKMTR)
Object type
Payload
Rocket body
Debris
Shape & HBR
Unknown shape, 0.2 m
Radar Cross Section
Small (<0.1 m²)

Expand to show TLE details & history
Last TLE update: 8 hours ago

TLE from 8 hours ago
0 SL-14 DEB
1 45284U 91056W   26062.67274149  .00009361  00000-0  15041-1 0  9991
2 45284  82.5652 156.1552 0130010 158.3088 202.3628 13.45262427294954
Epoch: 2026-03-03T16:08Z
TLE epoch observation values (Epoch: 2026-03-03T16:08:44.864Z)
Latitude
-0.0001°
Longitude
112.51982°
Altitude
1,182.574 km
Speed
7.218 km/s
True Right ascension
10h 24m 37s
True Declination
0° 00' 00"
Sunlit
Object was in full shadow at epoch
Visualization orbit readout
Latitude
Unknown
Longitude
Unknown
Altitude
Unknown
Speed
Unknown
Apparent Right ascension
Unknown
Apparent Declination
Unknown
Sunlit
N/A
Visualization observer readout
Local Sidereal Time
04:04:13
Azimuth
Unknown
Elevation
Unknown
Doppler factor
Unknown
Orbital elements
Apogee altitude
1,183.998 km
Perigee altitude
989.891 km
Semi-major axis
7,465.081 km
Eccentricity
0.013
Inclination
82.5652°
RAAN
156.1552°
Arg. of periapsis
158.3088°
True anomaly
201.80438°
Mean anomaly
202.3628°
Eccentric anomaly
202.08276°
Mean motion
3.36505 °/min
Orbital period
106.98 mins
BSTAR
0.015041
Loading maneuver chart data...
Computing Atmospheric mass density...
Loading historical data...
Loading historical data...
Loading historical data...
Loading historical data...
Loading historical data...
Loading historical data...
Loading historical data...

Documentation

Showing up to 5 results
|